Location: Highridge
(54.0333°N, 114.1333°W)
Time: 21:43:49
(UTC+00:00)

ITAMSAT 1 - Visible Passes

Search period start: 19 September 2024 00:00
Search period end: 29 September 2024 00:00
Orbit: 781 x 795 km, 98.8° (Epoch: 18 September)

Date Brightness Start Highest point End Pass type
(mag) Time Alt. Az. Time Alt. Az. Time Alt. Az.
19 Sep 7.6 03:41:34 26° SSE 03:44:33 70° ENE 03:49:45 10° NNW visible
19 Sep 9.6 05:22:16 17° SW 05:24:30 23° W 05:28:34 10° NW visible
20 Sep 8.1 03:11:21 19° SE 03:14:41 44° ENE 03:19:35 10° N visible
20 Sep 8.9 04:52:03 26° SW 04:54:12 37° W 04:59:02 10° NNW visible
21 Sep 8.7 02:41:08 13° ESE 02:44:55 28° ENE 02:49:18 10° N visible
21 Sep 8.0 04:21:50 33° S 04:24:03 62° WSW 04:29:13 10° NNW visible
21 Sep 10.3 06:02:59 10° W 06:04:34 11° W 06:06:08 10° WNW visible
22 Sep 9.2 02:11:44 10° E 02:15:16 19° NE 02:18:49 10° N visible
22 Sep 7.6 03:51:36 33° SSE 03:54:00 81° ENE 03:59:14 10° NNW visible
22 Sep 9.7 05:32:18 17° WSW 05:34:04 19° W 05:37:47 10° NW visible
23 Sep 7.9 03:21:23 26° SE 03:24:05 50° ENE 03:29:06 10° N visible
23 Sep 9.1 05:02:05 26° SW 05:03:45 32° W 05:08:23 10° NNW visible
24 Sep 8.5 02:51:10 17° ESE 02:54:17 32° ENE 02:58:51 10° N visible
24 Sep 8.2 04:31:51 37° SSW 04:33:32 53° W 04:38:38 10° NNW visible
25 Sep 9.0 02:20:56 11° E 02:24:36 21° NE 02:28:25 10° N visible
25 Sep 7.6 04:01:38 42° SSE 04:03:27 87° WSW 04:08:41 10° NNW visible
25 Sep 9.9 05:42:20 15° WSW 05:43:39 17° W 05:46:56 10° NW visible
26 Sep 7.7 03:31:25 34° SE 03:33:30 58° ENE 03:38:35 10° N visible
26 Sep 9.2 05:12:06 25° WSW 05:13:16 27° W 05:17:41 10° NW visible
27 Sep 8.3 03:01:11 23° ESE 03:03:39 36° ENE 03:08:22 10° N visible
27 Sep 8.5 04:41:52 39° SW 04:43:02 45° W 04:48:01 10° NNW visible
28 Sep 8.9 02:30:57 15° E 02:33:56 24° NE 02:38:00 10° N visible
28 Sep 7.7 04:11:39 52° S 04:12:54 75° WSW 04:18:07 10° NNW visible
28 Sep 10.1 05:52:21 14° W 05:53:14 14° W 05:55:56 10° NW visible
